[ hide orbit diagram ]
For accurate long-term ephemerides, please instead use our Horizons system.This orbit viewer was implemented using two-body methods, and hence should not be used for determining accurate long-term trajectories (over several years or decades) or planetary encounter circumstances.
Orbital Elements at Epoch 2459200.5 (2020-Dec-17.0) TDB
Reference: JPL 17 (heliocentric ecliptic J2000)
Element | Value | Uncertainty (1-sigma) | Units |
e | .1296295983056734 | 4.2221e-08 | |
a | 2.267130541212137 | 1.2341e-08 | au |
q | 1.973243319848284 | 9.3341e-08 | au |
i | 3.610212791368238 | 6.2655e-06 | deg |
node | 351.826331032468 | 6.6751e-05 | deg |
peri | 299.6032240122673 | 7.173e-05 | deg |
M | 143.6337745729705 | 3.0524e-05 | deg |
tp | 2458703.029547342464 (2019-Aug-07.52954734) | 0.00010367 | TDB |
period | 1246.847153388216 3.41 | 1.0181e-05 2.787e-08 | d yr |
n | .2887282527146382 | 2.3575e-09 | deg/d |
Q | 2.56101776257599 | 1.3941e-08 | au |
|
| | Orbit Determination Parameters
Additional Information
|
[ show covariance matrix ]
Physical Parameter Table
Parameter |
Symbol |
Value |
Units |
Sigma |
Reference |
Notes |
absolute magnitude |
H |
16.5 |
|
n/a |
MPO291101 |
|
|
102394 (1999 TL161) Discovered 1999-Oct-09 by LINEAR at Socorro |
Reference: 20051019/Numbers.arc | Last Updated: 2005-10-26 |
|
|